Change the Weather History Date:

Friday, January 11, 2013

  Actual Average Record
Temperature  
Mean Temperature 48 °F 50 °F  
Max Temperature 52 °F 56 °F 69 °F (1959)
Min Temperature 44 °F 44 °F 30 °F (1949)
Degree Days  
Heating Degree Days 17 15  
Month to date heating degree days 187 165  
Since 1 July heating degree days 1182 1175  
Cooling Degree Days 0 0  
Month to date cooling degree days 0 0  
Year to date cooling degree days 0 0  
Moisture  
Dew Point 35 °F    
Average Humidity 63    
Maximum Humidity 76    
Minimum Humidity 49    
Precipitation  
Precipitation 0.00 in 0.15 in 1.30 in (1980)
Month to date precipitation 0.10 1.54  
Year to date precipitation 0.10 1.54  
Since 1 July precipitation 11.10 9.11  
Sea Level Pressure  
Sea Level Pressure 30.20 in    
Wind  
Wind Speed 11 mph (WNW)    
Max Wind Speed 24 mph    
Max Gust Speed 29 mph    
Visibility 10 miles    
Events      
T = Trace of Precipitation, MM = Missing Value Source: NWS Daily Summary

Daily Weather History Graph

Daily Weather History Graph

Search for Another Location

Airport or City:

Trip Planner

Search our weather history database for the weather conditions in past years. The results will help you decide how hot, cold, wet, or windy it might be!

Date:

Astronomy

Jan. 11, 2013 Rise Set
Actual Time 7:24 AM PST 5:11 PM PST
Civil Twilight 6:55 AM PST 5:39 PM PST
Nautical Twilight 6:23 AM PST 6:12 PM PST
Astronomical Twilight 5:51 AM PST 6:43 PM PST
Moon 7:02 AM PST (1/11) 5:34 PM PST (1/11)
Length of Visible Light 10h 44m
Length of Day
9h 46m
New Moon, 0% of the Moon is Illuminated
Jan 11
New Moon
Jan 18
First Quarter
Jan 26
Full
Feb 3
Last Quarter
Feb 9
New

Hourly Weather History & Observations

Time (PST) Temp. Windchill Dew Point Humidity Pressure Visibility Wind Dir Wind Speed Gust Speed Precip Events Conditions
12:56 AM 46.0 °F 39.3 °F 32.0 °F 58% 30.20 in 10.0 mi WNW 16.1 mph - N/A   Partly Cloudy
1:56 AM 46.0 °F 40.6 °F 30.9 °F 56% 30.21 in 10.0 mi WNW 11.5 mph 18.4 mph N/A   Scattered Clouds
2:56 AM 46.0 °F 39.9 °F 30.0 °F 54% 30.21 in 10.0 mi WNW 13.8 mph - N/A   Scattered Clouds
3:56 AM 46.0 °F 39.6 °F 28.9 °F 51% 30.21 in 10.0 mi WNW 15.0 mph - N/A   Scattered Clouds
4:56 AM 46.4 °F 40.4 °F 30.2 °F 53% 30.21 in 10.0 mi NW 13.8 mph - N/A   Partly Cloudy
5:56 AM 46.0 °F 40.6 °F 30.0 °F 54% 30.22 in 10.0 mi NNW 11.5 mph - N/A   Partly Cloudy
6:56 AM 45.0 °F 43.5 °F 28.9 °F 53% 30.24 in 10.0 mi NW 3.5 mph - N/A   Scattered Clouds
7:56 AM 44.6 °F - 33.8 °F 66% 30.26 in 10.0 mi Calm Calm - N/A   Scattered Clouds
8:56 AM 46.9 °F - 34.0 °F 61% 30.27 in 10.0 mi Calm Calm - N/A   Mostly Cloudy
9:56 AM 46.9 °F - 35.1 °F 63% 30.27 in 10.0 mi East 3.5 mph - N/A   Mostly Cloudy
10:56 AM 46.9 °F - 36.0 °F 66% 30.26 in 10.0 mi Calm Calm - N/A   Mostly Cloudy
11:56 AM 50.0 °F - 34.0 °F 54% 30.22 in 10.0 mi WNW 13.8 mph - N/A   Mostly Cloudy
12:56 PM 51.1 °F - 36.0 °F 56% 30.19 in 10.0 mi WNW 13.8 mph 24.2 mph N/A   Mostly Cloudy
1:56 PM 51.1 °F - 37.9 °F 61% 30.17 in 10.0 mi West 19.6 mph - N/A   Mostly Cloudy
2:56 PM 51.1 °F - 39.0 °F 63% 30.17 in 10.0 mi West 19.6 mph - N/A   Mostly Cloudy
3:56 PM 50.0 °F - 39.0 °F 66% 30.15 in 10.0 mi West 21.9 mph - N/A   Scattered Clouds
4:56 PM 48.9 °F - 39.0 °F 69% 30.14 in 10.0 mi West 19.6 mph 25.3 mph N/A   Scattered Clouds
5:56 PM 48.9 °F - 39.0 °F 69% 30.15 in 10.0 mi WNW 15.0 mph 21.9 mph N/A   Scattered Clouds
6:56 PM 48.0 °F - 39.0 °F 71% 30.14 in 10.0 mi WNW 17.3 mph 24.2 mph N/A   Scattered Clouds
7:56 PM 48.0 °F - 39.0 °F 71% 30.14 in 10.0 mi WNW 12.7 mph - N/A   Partly Cloudy
8:56 PM 46.0 °F 40.6 °F 39.0 °F 76% 30.16 in 10.0 mi West 11.5 mph - N/A   Scattered Clouds
9:56 PM 46.9 °F - 39.9 °F 77% 30.17 in 10.0 mi NNE 9.2 mph - N/A   Scattered Clouds
10:56 PM 46.0 °F 44.8 °F 37.9 °F 73% 30.17 in 10.0 mi NW 3.5 mph - N/A   Mostly Cloudy
11:56 PM 46.0 °F 43.1 °F 36.0 °F 68% 30.19 in 10.0 mi NNW 5.8 mph - N/A   Mostly Cloudy